Погода в Старопышминске

Россия / Свердловская область     56°55′56″N   60°54′05″E
темп.,
°C
ветер,
м/с
пор.,
м/с
влажн.,
%
обл.,
%
осадки,
мм/ч
давл.,
гПа
погр.,
м
28 февраля, вс
вс2823:00−18юв51293100 0.7 1014625
02:00−18вюв51194100 0.2 1012601
05:00−17вюв51195100 0.4 1012535
08:00−18в51096100 0.2 1011461
11:00−17в4993100 0.4 1011438
14:00−14в4792100 0.4 1010497
17:00−14всв4793100 0.7 1010502
20:00−16всв3795100 0.3 1012411
1 марта, пн
пн123:00−18св3797100 0.4 1013317
02:00−19св3697100 0.2 1014294
05:00−19ссв369899 0.3 1015284
08:00−20ссв2697100 0.2 1017266
11:00−18ссв249399 0.3 1018320
14:00−14ссв2285100 0.1 1017473
17:00−13св1187100 0.1 1017418
20:00−17в0197100 0.1 101720
2 марта, вт
вт223:00−19ю229992 0.1 101720
02:00−20юз239923 0.0 101630
05:00−20юз239811 0.0 101453
08:00−20юз36980 0.0 1013108
11:00−15юз37905 0.0 1011358
14:00−10ююз478786 0.0 1008527
17:00−9ююз498693 0.0 1006590
20:00−10ю41094100 0.1 1004505
3 марта, ср
ср323:00−10ю3894100 0.3 1004439
02:00−11юз3894100 0.4 1002512
05:00−13юз379599 0.8 1002386
08:00−14ююз2796100 0.1 1000230
11:00−9ююз359199 0.3 1000400
14:00−5юз2489100 0.2 999593
17:00−4зюз1390100 0.4 999428
20:00−9зсз119690 0.1 99921
4 марта, чт
чт423:00−11з229476 0.1 100021
02:00−12зюз239594 0.0 99930
05:00−12зюз239686 0.0 100039
08:00−10зюз379662 0.1 1000202
11:00−6зсз478981 0.3 1000555
14:00−5з5779100 0.1 10001019
17:00−7з478196 0.1 10011027
20:00−12ююз369255 0.0 1001124